Springfield, IL

8:00 PM CST on February 20, 2017 (GMT -0600)
Capital

Weather History for KSPI - February, 2012

Change the Weather History Date:

Wednesday, February 29, 2012

  Actual Average Record
Temperature  
Mean Temperature 51 °F 36 °F  
Max Temperature 63 °F 45 °F 74 °F (1972)
Min Temperature 38 °F 27 °F -2 °F (1960)
Degree Days  
Heating Degree Days 14 29  
Month to date heating degree days 806 975  
Since 1 July heating degree days 3522 4300  
Cooling Degree Days 0 0  
Month to date cooling degree days 0 0  
Year to date cooling degree days 0 0  
Moisture  
Dew Point 40 °F    
Average Humidity 60    
Maximum Humidity 87    
Minimum Humidity 32    
Precipitation  
Precipitation 0.01 in 0.08 in 0.30 in (1980)
Month to date precipitation 1.59 1.81  
Year to date precipitation 3.07 3.63  
Snow  
Snow 0.00 in 0.10 in 5.10 in (1980)
Month to date snowfall 2.3 5.5  
Since 1 July snowfall 6.4 18.1  
Snow Depth 0.00 in    
Sea Level Pressure  
Sea Level Pressure 29.63 in    
Wind  
Wind Speed 22 mph (WSW)    
Max Wind Speed 39 mph    
Max Gust Speed 56 mph    
Visibility 10 miles    
Events Rain , Thunderstorm    
T = Trace of Precipitation, MM = Missing Value Source: NWS Daily Summary

Daily Weather History Graph

Daily Weather History Graph

Search for Another Location

Airport or City:

Trip Planner

Search our weather history database for the weather conditions in past years. The results will help you decide how hot, cold, wet, or windy it might be!

Date:

Astronomy

Feb. 29, 2012 Rise Set
Actual Time 6:32 AM CST 5:50 PM CST
Civil Twilight 6:05 AM CST 6:17 PM CST
Nautical Twilight 5:34 AM CST 6:48 PM CST
Astronomical Twilight 5:03 AM CST 7:19 PM CST
Moon 10:24 AM CST (2/29) 12:36 AM CST (2/29)
Length of Visible Light 12h 11m
Length of Day
11h 17m
Waxing Crescent, 47% of the Moon is Illuminated
Feb 29
Waxing Crescent
Feb 29
First Quarter
Mar 8
Full
Mar 14
Last Quarter
Mar 22
New

Hourly Weather History & Observations

Time (CST) Temp. Windchill Dew Point Humidity Pressure Visibility Wind Dir Wind Speed Gust Speed Precip Events Conditions
12:52 AM 55.9 °F - 52.0 °F 87% 29.64 in 10.0 mi South 18.4 mph 24.2 mph N/A   Overcast
1:52 AM 59.0 °F - 55.0 °F 87% 29.62 in 10.0 mi South 17.3 mph 26.5 mph N/A   Overcast
2:45 AM 62.6 °F - 57.2 °F 82% 29.59 in 9.0 mi SSW 27.6 mph 34.5 mph 0.00 in Rain , Thunderstorm Light Rain
2:52 AM 62.1 °F - 57.9 °F 86% 29.57 in 7.0 mi SSW 23.0 mph 34.5 mph 0.00 in Rain , Thunderstorm Light Rain
3:00 AM 62.6 °F - 57.2 °F 82% 29.55 in 8.0 mi South 23.0 mph 39.1 mph 0.01 in Rain Light Rain
3:09 AM 60.8 °F - 57.2 °F 88% 29.55 in 10.0 mi South 19.6 mph - 0.01 in Rain Light Rain
3:52 AM 61.0 °F - 57.0 °F 87% 29.53 in 10.0 mi SSW 20.7 mph 24.2 mph 0.01 in   Mostly Cloudy
4:52 AM 60.1 °F - 52.0 °F 75% 29.58 in 10.0 mi SW 15.0 mph 25.3 mph N/A   Mostly Cloudy
5:52 AM 59.0 °F - 51.1 °F 75% 29.60 in 10.0 mi SW 18.4 mph 25.3 mph N/A   Clear
6:52 AM 55.0 °F - 43.0 °F 64% 29.62 in 10.0 mi WSW 13.8 mph 23.0 mph N/A   Clear
7:52 AM 55.9 °F - 42.1 °F 60% 29.63 in 10.0 mi WSW 13.8 mph 23.0 mph N/A   Clear
8:52 AM 57.0 °F - 39.0 °F 51% 29.63 in 10.0 mi SW 15.0 mph 25.3 mph N/A   Clear
9:52 AM 57.9 °F - 39.9 °F 51% 29.63 in 10.0 mi SW 19.6 mph 27.6 mph N/A   Clear
10:52 AM 59.0 °F - 37.0 °F 44% 29.62 in 10.0 mi SW 24.2 mph 32.2 mph N/A   Clear
11:52 AM 60.1 °F - 35.1 °F 39% 29.61 in 10.0 mi SW 20.7 mph 32.2 mph N/A   Clear
12:52 PM 61.0 °F - 33.1 °F 35% 29.57 in 10.0 mi SW 21.9 mph 33.4 mph N/A   Clear
1:52 PM 61.0 °F - 32.0 °F 34% 29.53 in 10.0 mi WSW 35.7 mph 46.0 mph N/A   Clear
2:52 PM 60.1 °F - 30.0 °F 32% 29.54 in 10.0 mi WSW 38.0 mph 49.5 mph N/A   Clear
3:52 PM 57.0 °F - 30.0 °F 36% 29.57 in 10.0 mi West 31.1 mph 43.7 mph N/A   Clear
4:52 PM 52.0 °F - 28.9 °F 41% 29.62 in 10.0 mi West 31.1 mph 36.8 mph N/A   Mostly Cloudy
5:52 PM 50.0 °F - 30.0 °F 46% 29.67 in 10.0 mi West 26.5 mph 35.7 mph N/A   Overcast
6:52 PM 46.9 °F - 28.9 °F 50% 29.70 in 10.0 mi West 26.5 mph 42.6 mph N/A   Scattered Clouds
7:52 PM 45.0 °F 36.9 °F 28.0 °F 52% 29.73 in 10.0 mi West 20.7 mph 31.1 mph N/A   Clear
8:52 PM 43.0 °F 35.1 °F 28.0 °F 56% 29.76 in 10.0 mi West 17.3 mph 28.8 mph N/A   Clear
9:52 PM 42.1 °F 32.8 °F 27.0 °F 55% 29.76 in 10.0 mi West 21.9 mph 26.5 mph N/A   Clear
10:52 PM 39.9 °F 31.1 °F 27.0 °F 60% 29.79 in 10.0 mi WNW 17.3 mph 26.5 mph N/A   Clear
11:52 PM 37.9 °F 28.5 °F 27.0 °F 65% 29.81 in 10.0 mi West 17.3 mph 24.2 mph N/A   Clear